Location: LewisvilleTX
(33.0462°N, 96.9942°W)
Time: 02:57:20
(UTC+00:00)

X-37B - Visible Passes

Search period start: 27 November 2022 00:00
Search period end: 07 December 2022 00:00
Orbit: 277 x 277 km, 45.0° (Epoch: 01 November)

Date Brightness Start Highest point End Pass type
(mag) Time Alt. Az. Time Alt. Az. Time Alt. Az.
27 Nov 1.7 11:57:47 21° SSW 11:57:47 21° SSW 11:59:32 10° SSE visible
04 Dec 2.5 00:58:31 10° SSW 00:59:20 18° SSW 00:59:20 18° SSW visible
05 Dec 2.0 00:58:57 10° SW 01:00:20 29° WSW 01:00:20 29° WSW visible
06 Dec 2.1 00:59:48 10° W 01:01:14 26° WNW 01:01:14 26° WNW visible
